Theta_e
321 323 320 319 317 318 317 316 316 317 317 318 316 316 317 318 320 326 326 337 341 337 333 332 331 330 330 330 331 332 332 332 332 332 331 333 337 338 338 339 341 343 343
321 322 322 319 318 319 319 317 316 316 317 316 320 318 318 319 321 328 330 332 339 337 334 332 329 330 329 329 330 331 331 332 332 333 333 332 333 334 336 337 338 338 339
321 321 322 319 318 321 320 318 317 318 316 317 314 319 320 322 326 322 330 329 332 338 335 333 331 331 330 330 329 330 330 331 332 332 332 332 333 334 334 334 336 335 336
323 320 323 319 320 321 318 317 317 317 316 315 312 314 316 318 319 320 324 327 328 329 333 334 334 332 331 332 332 331 331 330 331 332 331 330 331 332 334 334 333 333 333
325 320 323 324 320 319 318 317 316 316 316 315 313 315 316 318 316 322 319 319 318 320 322 333 335 336 334 333 333 334 333 331 330 331 331 330 331 332 332 332 331 331 332
326 321 322 325 323 319 317 318 316 316 316 315 317 317 314 315 317 315 316 319 317 317 317 317 319 320 332 331 332 333 334 333 331 330 331 330 328 328 329 329 328 328 328
325 321 322 322 320 318 320 317 315 314 314 317 312 312 313 315 315 316 316 316 316 317 317 319 315 319 320 333 334 332 333 334 333 331 332 331 329 327 326 327 327 326 327
324 324 321 320 318 318 318 317 316 314 313 315 312 308 305 309 312 314 316 317 315 316 316 318 316 317 317 318 321 332 331 333 334 332 332 333 331 329 327 327 327 327 326
326 323 322 320 318 319 317 318 316 313 312 316 314 312 306 302 307 312 313 315 316 317 316 318 319 321 319 318 324 328 335 335 333 333 332 331 331 331 330 329 328 328 328
324 325 323 322 320 317 317 318 319 317 314 312 315 317 315 312 307 306 310 313 315 316 315 317 319 322 319 321 324 329 331 333 332 332 331 331 331 331 331 330 329 329 328
325 325 323 321 320 320 319 320 319 318 317 315 314 314 314 314 312 308 308 309 313 314 315 315 316 319 320 319 319 322 329 329 330 331 331 330 329 330 329 330 330 330 328
323 325 323 321 321 322 321 321 321 320 319 318 318 317 315 313 313 310 309 312 311 314 315 316 318 318 319 318 323 329 328 327 326 326 328 329 330 328 329 328 329 329 329
323 323 322 321 321 323 324 323 321 321 320 319 318 318 317 317 315 313 311 311 309 311 312 315 317 316 318 318 319 327 328 328 326 325 324 326 327 328 328 327 327 328 328
323 323 323 323 324 325 325 324 322 322 321 321 319 318 317 318 317 315 311 309 308 305 307 309 312 314 314 315 321 328 323 327 326 324 323 323 325 326 326 327 327 327 328
325 326 325 325 325 325 326 324 326 322 321 320 320 319 316 317 317 316 316 312 310 307 307 308 307 312 312 314 317 317 316 323 326 324 323 322 322 323 324 324 324 325 325
329 325 326 326 327 330 326 326 325 321 320 320 320 317 316 316 315 313 312 310 308 305 302 305 307 308 311 313 316 317 315 323 323 323 323 323 322 321 322 323 323 323 324
328 327 328 329 328 326 325 321 316 316 316 315 314 314 313 311 311 310 309 307 306 304 302 305 307 307 307 308 310 311 314 314 316 320 322 322 321 319 320 320 321 321 322
328 328 329 327 320 316 312 311 310 310 311 313 312 311 310 315 309 309 307 305 304 303 300 300 304 305 305 307 307 307 311 314 315 319 320 320 319 318 317 317 317 318 318
329 330 326 317 312 310 308 306 307 307 308 310 312 311 311 310 306 305 304 302 302 304 302 301 302 305 306 306 306 308 309 310 313 318 318 319 319 318 318 317 316 315 315
327 323 319 314 309 307 306 304 305 303 305 311 315 312 312 309 306 304 303 301 302 300 301 302 304 305 306 305 305 304 305 307 307 312 315 317 317 317 317 317 316 316 314
322 321 319 313 307 305 305 301 301 302 302 308 313 312 312 312 314 309 304 301 300 299 301 301 301 301 302 303 303 305 304 306 306 308 308 310 308 310 313 316 318 318 314
318 318 316 315 307 307 304 305 305 302 305 309 309 310 311 317 313 312 311 311 309 302 300 298 299 300 301 302 306 305 306 305 302 308 306 308 310 310 313 315 315 314 312
317 316 314 315 309 303 303 303 306 305 305 305 308 307 308 312 306 303 305 307 308 310 310 303 298 300 302 302 304 302 302 305 304 308 308 307 308 309 311 316 313 311 311
316 314 314 313 310 307 303 302 304 305 304 304 307 306 306 304 301 301 300 301 302 303 304 304 302 303 304 304 303 302 302 305 308 308 310 304 304 305 309 312 312 310 309
315 314 315 313 311 309 303 302 302 303 303 303 305 305 307 303 302 302 299 299 300 301 307 307 305 304 302 301 303 302 299 299 299 303 307 306 302 306 309 311 313 311 309
315 316 313 313 313 310 302 301 301 302 299 300 301 303 305 303 301 299 297 297 296 299 299 299 300 300 302 302 304 302 300 296 298 299 308 306 305 307 304 310 310 310 308
Wind_Speed
4 3 4 4 4 4 4 4 4 4 6 5 4 1 3 5 1 3 2 9 7 7 6 5 3 2 1 3 4 5 6 5 5 5 5 6 6 5 5 6 7 10 11
2 3 4 3 4 4 4 4 4 4 5 4 6 3 4 5 3 5 3 3 7 6 6 5 2 4 5 6 7 7 7 7 8 7 8 7 7 8 7 7 7 6 5
1 2 2 3 3 4 4 5 6 6 6 5 6 5 3 4 1 5 4 3 4 8 9 6 6 7 7 8 8 9 9 8 9 7 6 7 8 9 8 7 7 7 6
4 2 3 2 3 4 2 4 4 5 5 4 4 6 4 3 4 4 3 3 4 4 7 10 11 10 11 12 11 11 10 10 10 9 8 8 8 10 11 8 7 8 9
4 3 2 2 3 3 3 3 3 2 4 5 4 4 5 2 2 3 4 2 2 4 4 12 13 14 15 15 16 14 13 11 11 11 10 7 7 7 5 6 7 8 9
6 3 3 3 2 2 2 3 2 3 2 3 3 5 4 3 2 1 3 3 3 5 4 4 4 5 11 11 10 12 14 13 13 13 10 9 7 6 6 6 7 6 5
5 3 2 3 3 4 2 1 2 4 4 4 3 5 4 2 2 4 4 4 6 6 6 5 4 4 4 8 8 12 13 14 16 15 12 12 11 10 9 8 7 6 6
1 3 3 3 1 2 3 3 2 3 3 3 2 1 4 5 3 3 3 4 6 4 6 6 6 6 6 4 8 11 14 15 17 16 14 14 15 13 12 12 11 9 8
4 3 4 3 1 1 1 1 2 2 2 4 1 2 4 2 4 3 5 3 6 4 5 6 7 6 7 6 9 10 14 15 16 17 17 16 17 17 16 16 15 14 13
5 3 3 4 4 2 2 2 2 1 1 4 5 2 2 4 2 6 3 4 6 6 6 5 5 6 6 4 10 14 15 14 17 17 17 18 17 17 19 20 19 17 13
6 5 3 5 4 2 2 3 4 3 3 3 3 2 2 3 2 3 7 5 4 5 5 5 5 5 7 5 2 3 4 7 9 16 17 19 19 19 18 19 21 21 16
3 3 3 4 3 3 4 4 5 5 5 4 3 4 3 3 5 3 4 7 8 5 4 5 6 6 5 4 6 9 9 7 9 11 15 19 19 18 19 19 19 19 19
2 5 4 3 3 4 6 5 5 5 4 4 5 4 4 4 3 3 2 5 4 3 4 4 5 5 6 5 6 11 11 11 11 14 14 16 19 19 20 20 20 20 19
3 3 4 5 6 7 6 4 3 4 4 5 7 5 4 4 3 3 3 2 5 3 3 6 3 5 5 5 10 15 7 13 14 14 14 16 17 19 19 20 20 19 18
2 5 5 5 7 6 5 5 3 5 4 5 6 6 3 3 4 3 3 1 3 6 7 5 4 6 6 6 9 7 6 12 17 18 17 17 18 19 21 22 22 20 19
3 4 5 7 6 5 5 3 2 4 5 5 4 4 4 3 3 3 2 2 2 2 5 3 4 6 7 9 11 11 7 14 16 18 20 19 19 21 21 19 19 20 20
6 5 7 3 3 5 6 6 5 5 6 5 4 4 4 3 3 4 4 3 3 2 5 8 7 9 9 11 7 8 9 8 9 18 20 20 18 17 20 21 20 21 21
4 6 2 6 6 7 7 7 6 6 6 7 5 4 5 4 5 5 3 4 3 3 3 11 9 8 8 7 9 10 9 8 9 16 20 20 17 17 15 15 15 18 19
2 1 4 8 6 6 6 6 6 6 6 6 6 4 4 5 3 1 1 3 3 4 4 5 9 8 7 10 10 10 10 8 6 18 19 19 17 16 17 16 17 18 19
3 6 7 7 6 6 5 6 6 7 7 6 6 4 3 4 4 1 2 3 4 5 5 5 8 9 8 9 8 8 10 7 8 9 14 15 13 12 15 17 17 18 20
5 7 7 7 6 6 4 5 6 6 6 7 7 5 5 6 7 4 2 4 5 4 4 5 6 8 11 12 11 9 10 9 9 8 8 6 3 4 6 12 16 17 16
5 6 4 6 7 4 5 2 3 5 6 6 6 6 5 9 5 2 8 9 9 4 4 3 5 9 11 11 11 11 10 9 9 3 5 11 3 7 6 6 11 12 13
5 4 2 5 6 5 4 3 6 4 6 6 6 6 7 3 4 4 7 10 10 11 10 6 6 9 8 9 10 13 13 11 11 9 7 10 3 8 6 7 9 9 12
5 3 1 4 7 6 9 6 5 4 6 7 6 7 6 3 2 1 5 6 7 7 7 5 7 10 8 6 9 11 14 13 9 8 6 7 3 5 4 5 10 10 10
2 3 3 5 5 7 11 7 1 4 5 6 7 7 1 2 5 6 5 5 7 9 7 11 14 14 13 8 9 10 9 10 10 9 5 4 3 3 3 5 5 13 14
2 2 3 5 7 5 9 8 2 2 4 4 5 7 8 7 8 9 6 4 6 11 5 7 6 7 9 7 14 8 8 9 8 8 3 3 2 2 3 2 3 4 2
Wind_Direction
18 9 344 54 23 357 347 347 344 337 326 331 328 10 335 315 12 195 168 169 157 145 146 151 151 137 258 284 286 289 288 282 274 271 281 292 299 284 278 291 274 264 257
26 360 12 46 9 344 340 22 1 351 344 347 347 289 260 292 317 135 168 183 173 161 177 192 191 242 259 285 281 277 280 277 272 273 273 264 274 281 286 281 281 280 274
114 353 64 46 354 343 354 25 4 355 352 340 355 347 325 320 142 121 173 181 188 189 215 201 216 243 265 285 277 272 270 271 277 264 270 281 274 266 250 263 275 264 281
160 45 101 58 334 26 38 29 5 338 336 333 342 323 288 30 15 351 142 152 191 209 223 220 229 237 255 269 275 268 268 267 269 263 263 265 276 274 257 230 245 255 263
173 98 68 166 33 75 54 27 332 8 323 315 335 341 315 321 17 57 32 49 188 180 209 227 227 232 247 265 285 256 261 263 260 263 254 257 267 275 256 242 258 257 250
138 84 34 3 73 51 28 25 345 338 291 282 323 324 303 275 141 342 293 290 269 268 243 231 234 251 266 282 298 243 253 253 254 257 254 235 242 250 251 246 247 259 276
155 116 109 67 40 38 79 8 320 350 334 337 354 328 307 269 70 318 292 266 274 269 268 232 243 244 246 254 245 249 259 259 250 244 242 232 232 234 241 242 243 251 255
153 152 154 136 109 81 347 323 12 331 305 9 0 341 349 337 330 291 315 278 267 275 268 263 268 238 235 237 245 247 259 256 258 252 245 227 230 236 241 242 244 244 244
210 170 173 167 178 97 23 331 94 64 328 316 41 139 350 281 317 317 317 305 295 296 286 289 274 272 257 223 241 243 255 248 252 248 248 239 230 235 240 245 244 245 246
189 185 215 170 170 203 341 291 217 223 82 299 333 13 173 198 284 324 325 313 320 324 306 292 282 282 268 237 246 248 244 253 249 251 248 250 250 248 240 243 243 244 248
201 198 198 154 150 202 266 251 279 263 232 227 231 288 303 306 240 198 301 303 299 285 286 276 290 278 274 291 289 268 10 340 317 260 248 246 248 252 249 248 248 242 238
204 205 184 151 189 222 249 265 262 247 247 243 246 258 233 239 279 259 276 295 283 282 280 284 294 290 282 256 261 275 277 259 288 289 266 250 244 242 247 249 254 251 247
115 185 168 181 224 232 235 241 260 258 266 262 265 257 247 242 228 230 218 281 268 290 280 260 271 282 281 270 256 265 270 272 258 262 268 266 250 240 239 242 246 252 250
176 201 192 211 233 243 249 253 252 266 275 265 272 267 257 258 238 229 213 225 302 282 283 268 283 277 279 278 264 263 251 259 261 256 260 260 252 245 246 244 241 240 246
242 158 210 228 244 255 250 256 249 278 272 274 266 271 260 273 269 282 262 242 256 312 305 302 297 288 293 285 269 270 258 259 267 263 254 249 249 246 242 242 237 233 232
237 249 249 249 259 280 300 277 293 288 299 300 292 318 338 319 360 3 22 357 335 306 309 281 300 305 314 311 294 295 286 282 281 273 264 254 247 249 245 238 234 235 228
231 232 246 288 91 67 40 48 26 19 22 0 5 34 2 344 30 30 24 12 343 328 309 310 311 307 305 302 313 309 301 289 284 276 270 261 252 246 241 240 232 230 223
252 250 111 96 81 71 48 38 24 0 5 346 328 15 344 33 54 41 11 354 299 308 307 306 307 307 303 293 298 299 296 287 283 287 281 265 255 253 237 233 236 236 224
298 125 73 110 103 77 52 31 24 357 344 326 326 1 2 94 73 1 333 330 303 306 290 284 298 303 296 307 306 301 295 288 276 293 291 280 255 246 242 238 232 232 218
80 84 116 114 105 90 66 32 9 347 334 322 316 334 117 153 165 240 306 289 300 298 290 291 302 306 307 314 297 303 303 302 296 296 286 271 257 249 243 240 233 244 219
102 95 123 124 116 90 63 31 1 335 320 311 309 294 181 202 183 188 207 316 310 284 291 292 309 318 326 325 314 309 294 293 299 284 281 285 256 260 259 250 239 233 213
95 86 123 150 125 96 103 23 310 325 314 303 304 305 311 240 180 34 355 323 308 295 301 269 305 307 308 320 312 318 295 299 304 263 327 296 244 266 257 242 231 206 208
113 109 73 93 128 145 173 267 321 337 324 318 309 317 324 33 80 20 336 314 302 300 291 276 292 299 301 313 330 322 315 306 297 284 280 287 231 263 246 240 217 202 216
118 123 261 159 161 194 200 225 317 325 316 314 322 326 318 150 14 336 297 300 291 279 280 285 292 290 276 313 336 310 301 294 293 281 264 274 229 253 246 224 210 224 220
139 174 230 240 212 212 208 195 358 315 312 325 324 327 266 222 293 304 277 288 298 289 280 295 300 304 290 306 323 317 313 311 308 304 278 253 260 268 234 217 197 223 229
201 199 268 250 245 231 179 188 198 281 314 314 302 301 264 246 270 278 273 289 289 289 300 303 304 304 316 303 323 301 298 304 301 299 264 235 274 288 289 218 186 222 217